Location: Arbon
(43.0005°N, 0.7472°E)
Time: 22:52:31
(UTC+00:00)

Altair - Pass Details

Date: 27 November 2020
Orbit: 1501 x 1682 km, 47.2° (Epoch: 26 January)

Event Time Altitude Azimuth Distance (km) Brightness Sun altitude
Rises 18:57:49 0° 199° (SSW) 4,748 10.4 -27.5°
Reaches altitude 10° 19:01:24 10° 189° (S) 3,740 9.6 -28.1°
Enters shadow 19:07:46 29° 147° (SSE) 2,527 8.3 -29.3°
Maximum altitude 19:09:10 30° 132° (SE) 2,469 - -29.5°
Drops below altitude 10° 19:16:46 10° 76° (ENE) 3,666 - -30.9°
Sets 19:20:13 0° 66° (ENE) 4,641 - -31.5°
